Current Weather Conditions: station 64046

sailwx.info

Wind from 160 at 20 knots

Wave height 2.5 meters (8 feet), 7 second period

Air temperature 6.4° C
Dewpoint 1.3° C
Water temperature 8.4° C

Last reported at 2018-Feb-26 01:00 UTC.
Time now 2018-Feb-26 02:05 UTC

Location: N 60°30' W 004°12'.
View on Google Maps.

See reports from other nearby stations

  
Tides and Currents Weather Stations Pressure Air Temp Water Temp Dewpoint Dewpoint Depression Visibility Wind Speed Wind Dir Waves Ship Positions
date/time (UTC)wind fromknots sea level pressurealtimeterstation pressurevisibilityair tempwater tempwave heightnotes
2018-Feb-26 01:00 160 20 6.4 8.4 2.5
2018-Feb-26 00:00 160 20 gusting 26 6.6 8.4 2.9
2018-Feb-25 23:00 160 20 gusting 25 6.5 8.4 2.7
2018-Feb-25 22:00 160 20 gusting 27 6.6 8.4 2.8
2018-Feb-25 21:00 160 20 gusting 27 6.5 8.5 3.0
2018-Feb-25 20:00 160 21 gusting 27 6.5 8.6 3.0
2018-Feb-25 19:00 160 20 gusting 25 6.5 8.7 2.6
2018-Feb-25 18:00 160 20 gusting 25 6.6 8.7 2.7
2018-Feb-25 17:00 160 19 6.6 8.7 2.6
2018-Feb-25 16:00 170 20 gusting 26 6.6 8.8 2.7
2018-Feb-25 15:00 160 20 6.4 8.8 3.3
2018-Feb-25 14:00 170 18 6.4 8.8 3.0
2018-Feb-25 13:00 160 18 6.2 8.8 3.1
2018-Feb-25 12:00 170 19 6.2 8.8 2.8
2018-Feb-25 11:00 160 18 6.2 8.8 3.3
2018-Feb-25 10:00 170 19 gusting 25 6.0 8.7 3.3
2018-Feb-25 09:00 160 20 6.0 8.7 3.7
2018-Feb-25 08:00 170 19 6.0 8.7 3.7
2018-Feb-25 07:00 160 20 gusting 26 6.0 8.7 3.9
2018-Feb-25 06:00 160 19 6.0 8.7 3.8
2018-Feb-25 05:00 170 19 5.9 8.8 4.1
2018-Feb-25 04:00 160 19 6.1 8.8 4.2
2018-Feb-25 03:00 170 19 6.1 8.8 3.7
2018-Feb-25 02:00 150 19 6.2 8.8 4.0
2018-Feb-25 01:00 160 15 6.2 8.8 4.0
2018-Feb-25 00:00 170 13 6.4 8.8 4.1
2018-Feb-24 23:00 170 14 6.5 8.8 4.1
2018-Feb-24 22:00 170 15 6.8 8.8 5.1
2018-Feb-24 21:00 160 17 6.9 8.7 5.4
2018-Feb-24 20:00 170 14 6.9 8.8 5.0
2018-Feb-24 19:00 190 13 6.9 8.8 4.3
2018-Feb-24 18:00 190 15 6.8 8.8 4.2
2018-Feb-24 17:00 180 15 6.7 8.8 4.1
2018-Feb-24 16:00 190 17 6.6 8.8 4.0
2018-Feb-24 15:00 190 19 6.5 8.8 4.5
2018-Feb-24 14:00 190 20 gusting 26 6.4 8.8 4.0
2018-Feb-24 13:00 180 20 gusting 27 6.3 8.8 4.0
2018-Feb-24 12:00 190 22 gusting 28 6.1 8.8 4.5
2018-Feb-24 11:00 180 24 gusting 29 6.2 8.8 4.7
2018-Feb-24 10:00 180 24 gusting 31 6.2 8.8 4.6
2018-Feb-24 09:00 170 25 gusting 29 6.2 8.8 4.1
2018-Feb-24 08:00 170 25 gusting 29 6.1 8.7 4.1
2018-Feb-24 07:00 170 24 gusting 29 6.1 8.7 4.6
2018-Feb-24 06:00 170 26 gusting 33 6.2 8.7 4.1
2018-Feb-24 05:00 170 26 gusting 32 6.2 8.7 4.5
2018-Feb-24 04:00 180 26 gusting 32 6.4 8.8 4.3
2018-Feb-24 03:00 180 26 gusting 34 6.4 8.8 5.1
2018-Feb-24 02:00 180 25 gusting 32 6.4 8.8 4.4